Flag for Germany Weather past 2 weeks in Homberg (Efze), Hesse, Germany

Now
57 °F

Passing clouds.


Feels Like: 57 °F
Forecast: 58 / 72 °F
Wind: 3 mph from Northwest

Location: Fritzlar

Current Time: Jul 24, 2014 at 6:54:17 AM

Latest Report: Jul 24, 2014 at 6:00 AM


Visibility: 16 mi

Pressure: 30.01 "Hg

Humidity: 88%

Dew point: 54 °F

Location of Homberg (Efze)Location

Historic Weather in Homberg (Efze) — Graph

°F

Homberg (Efze) temperature yesterday

Maximum temperature yesterday: 81 °F (at 3:00 PM)
Minimum temperature yesterday: 63 °F (at 6:00 AM)
Average temperature yesterday: 73 °F

Past Weeks' High & Low Weather Summary

 TemperatureHumidityPressure
High88 °F (Jul 19, 5:00 PM)98% (Jul 11, 6:00 AM)30.20 "Hg (Jul 11, 6:00 AM)
Low55 °F (Jul 15, 6:00 AM)34% (Jul 18, 5:00 PM)29.65 "Hg (Jul 9, 4:00 PM)
Average68 °F74%29.95 "Hg
* Reported Jul 9 3:00 PM — Jul 24 5:00 AM, Homberg (Efze), Weather by CustomWeather, © 2014

Note: Actual official high and low records may vary slightly from our data, if they occured in-between our weather recording intervals... More about our weather records

Advertising

Homberg (Efze) weather history for previous 24 hours

 ConditionsComfort  
Time TempWeatherWind HumidityBarometerVisibility
5:00 AM
Jul 24
59 °FPassing clouds.2 mph85%30.00 "Hg16 mi
4:00 AM60 °FPassing clouds.3 mph84%29.99 "Hg19 mi
3:00 AM60 °FClear.3 mph83%30.01 "Hg19 mi
2:00 AM62 °FClear.2 mph79%30.02 "Hg19 mi
1:00 AM63 °FPassing clouds.2 mph78%30.02 "Hg19 mi
12:00 AM65 °FPassing clouds.2 mph73%30.01 "Hg19 mi
11:00 PM
Jul 23
71 °FPassing clouds.2 mph57%30.01 "Hg22 mi
10:00 PM73 °FPassing clouds.3 mph52%30.01 "Hg22 mi
9:00 PM76 °FPassing clouds.3 mph48%29.99 "Hg25 mi
8:00 PM79 °FPassing clouds.5 mph42%29.98 "Hg25 mi
7:00 PM80 °FPassing clouds.3 mph47%29.99 "Hg25 mi
6:00 PM78 °FPartly sunny.3 mph48%30.00 "Hg22 mi
5:00 PM79 °FThunderstorms. Scattered clouds.3 mph52%30.01 "Hg22 mi
4:00 PM76 °FThunderstorms. Partly sunny.5 mph53%30.02 "Hg22 mi
3:00 PM81 °FScattered clouds.3 mph44%30.02 "Hg22 mi
6:00 AM63 °FPartly sunny.2 mph86%30.09 "Hg14 mi
Weather by CustomWeather, © 2014

See weather overviewHow to use our weather pages